Temp
-9 -9 -9 -9 -9 -9 -9 -9 -9 -8 -8 -9 -9 -10 -10 -10 -11 -12 -14 -16 -18 -19 -21 -22 -24 -25 -26 -25 -24 -22 -22 -22 -21 -20 -19 -19 -18 -18 -18 -17 -16 -16 -16 -16 -15 -15 -15
-9 -10 -9 -9 -9 -9 -9 -9 -9 -8 -9 -9 -9 -10 -10 -11 -11 -12 -13 -16 -18 -19 -21 -22 -24 -25 -26 -26 -23 -22 -22 -22 -21 -20 -19 -19 -18 -18 -19 -18 -17 -16 -16 -16 -16 -15 -15
-10 -10 -9 -9 -10 -10 -10 -9 -9 -9 -9 -9 -9 -10 -10 -11 -11 -12 -13 -15 -18 -19 -20 -22 -24 -25 -26 -26 -24 -23 -23 -23 -21 -21 -20 -19 -19 -18 -19 -18 -17 -17 -17 -16 -16 -15 -15
-10 -10 -10 -10 -10 -10 -10 -10 -9 -9 -9 -9 -10 -10 -10 -11 -11 -12 -13 -15 -17 -19 -20 -22 -24 -25 -26 -25 -24 -23 -23 -23 -21 -21 -20 -19 -19 -18 -19 -18 -18 -18 -17 -17 -17 -16 -14
-11 -10 -10 -10 -10 -10 -10 -10 -10 -9 -9 -10 -10 -10 -10 -11 -11 -12 -13 -14 -16 -18 -19 -21 -23 -24 -26 -25 -23 -23 -22 -22 -21 -21 -20 -19 -19 -18 -19 -19 -18 -18 -17 -17 -16 -16 -15
-11 -11 -11 -10 -10 -10 -10 -10 -10 -9 -9 -10 -10 -10 -11 -11 -11 -12 -13 -13 -15 -17 -18 -20 -22 -24 -25 -25 -23 -23 -23 -22 -22 -20 -19 -20 -19 -18 -19 -19 -18 -18 -17 -17 -16 -16 -15
-11 -11 -11 -11 -10 -10 -10 -10 -10 -9 -9 -9 -10 -10 -11 -11 -11 -12 -13 -13 -15 -16 -18 -19 -21 -24 -24 -24 -23 -23 -23 -22 -21 -20 -19 -19 -19 -19 -19 -19 -19 -18 -18 -17 -16 -16 -15
-11 -11 -11 -11 -11 -11 -11 -10 -10 -9 -9 -9 -10 -10 -11 -11 -11 -12 -13 -13 -15 -16 -18 -19 -20 -22 -23 -23 -23 -23 -22 -22 -21 -19 -20 -19 -19 -19 -19 -20 -19 -19 -18 -17 -17 -17 -16
-12 -12 -11 -12 -11 -11 -11 -11 -10 -10 -9 -10 -10 -10 -11 -11 -12 -12 -13 -13 -14 -16 -17 -18 -20 -21 -21 -22 -22 -23 -22 -21 -21 -20 -20 -20 -20 -19 -19 -19 -20 -19 -18 -17 -17 -17 -17
-12 -12 -12 -12 -12 -11 -11 -11 -10 -10 -10 -10 -10 -10 -11 -11 -12 -12 -13 -13 -14 -15 -16 -18 -19 -20 -21 -21 -21 -21 -21 -20 -20 -19 -19 -19 -19 -19 -19 -18 -19 -18 -18 -18 -18 -17 -17
-13 -12 -12 -12 -12 -12 -11 -11 -10 -10 -10 -10 -10 -11 -11 -11 -12 -12 -13 -14 -14 -15 -16 -17 -18 -19 -20 -20 -21 -20 -20 -20 -19 -19 -19 -19 -19 -18 -18 -18 -19 -18 -18 -18 -18 -17 -16
-13 -13 -12 -12 -12 -12 -12 -11 -11 -10 -10 -10 -10 -11 -11 -11 -12 -12 -13 -14 -14 -15 -16 -17 -18 -19 -19 -19 -19 -19 -19 -19 -19 -19 -19 -19 -19 -18 -18 -18 -18 -19 -18 -18 -18 -17 -16
-13 -13 -13 -12 -12 -12 -12 -12 -11 -11 -11 -11 -10 -11 -11 -11 -12 -12 -13 -14 -15 -15 -15 -16 -18 -18 -18 -18 -18 -19 -19 -19 -19 -19 -19 -19 -19 -19 -19 -19 -19 -19 -19 -18 -18 -17 -16
-13 -13 -13 -13 -12 -12 -12 -12 -12 -11 -11 -11 -11 -11 -11 -11 -12 -13 -13 -14 -15 -16 -16 -16 -17 -18 -18 -18 -19 -19 -19 -19 -20 -20 -20 -19 -19 -19 -19 -19 -19 -19 -19 -18 -18 -17 -16
-13 -13 -13 -13 -13 -12 -12 -12 -12 -12 -11 -11 -11 -11 -11 -11 -12 -13 -13 -13 -14 -15 -17 -17 -17 -18 -18 -18 -19 -19 -19 -20 -19 -20 -20 -20 -19 -19 -19 -19 -19 -19 -19 -18 -18 -17 -17
-13 -13 -13 -13 -13 -12 -13 -12 -12 -12 -12 -12 -11 -11 -11 -12 -12 -13 -13 -13 -14 -15 -16 -18 -18 -18 -18 -18 -18 -19 -19 -20 -20 -19 -20 -19 -20 -19 -19 -20 -19 -19 -19 -19 -18 -18 -17
-13 -13 -13 -13 -13 -13 -13 -13 -12 -12 -12 -12 -11 -11 -12 -12 -12 -13 -13 -13 -14 -15 -16 -17 -18 -19 -19 -19 -19 -19 -19 -20 -20 -20 -20 -20 -20 -20 -20 -19 -19 -19 -19 -19 -19 -18 -17
-13 -13 -13 -13 -13 -13 -13 -13 -13 -13 -12 -12 -12 -12 -12 -12 -12 -13 -14 -13 -14 -14 -16 -17 -18 -19 -19 -19 -19 -19 -20 -20 -20 -20 -20 -20 -20 -20 -20 -20 -20 -19 -19 -18 -18 -18 -18
-13 -13 -13 -13 -13 -13 -13 -13 -13 -13 -13 -13 -12 -12 -12 -13 -13 -13 -14 -14 -14 -15 -15 -16 -17 -18 -19 -20 -20 -20 -20 -21 -21 -20 -20 -20 -20 -20 -20 -20 -19 -19 -19 -19 -19 -18 -18
-13 -13 -13 -13 -13 -13 -13 -13 -13 -13 -13 -13 -13 -13 -13 -13 -13 -13 -14 -14 -14 -15 -15 -16 -16 -17 -18 -19 -20 -21 -20 -21 -21 -21 -21 -20 -20 -20 -20 -20 -20 -19 -20 -20 -19 -18 -18
-13 -14 -13 -13 -13 -13 -13 -13 -13 -13 -13 -13 -13 -13 -13 -13 -13 -13 -14 -14 -14 -14 -15 -15 -15 -17 -17 -17 -19 -21 -21 -22 -22 -22 -21 -21 -21 -21 -21 -20 -20 -20 -20 -19 -19 -19 -18
-14 -13 -13 -13 -13 -13 -13 -13 -13 -13 -13 -13 -13 -13 -13 -13 -13 -13 -14 -14 -14 -14 -14 -14 -15 -16 -17 -16 -19 -20 -23 -23 -24 -23 -22 -22 -20 -21 -21 -21 -20 -20 -20 -19 -19 -19 -19
-13 -13 -13 -13 -13 -14 -13 -13 -13 -13 -13 -13 -13 -13 -13 -13 -13 -14 -14 -14 -14 -14 -14 -13 -14 -15 -15 -16 -18 -20 -22 -23 -23 -23 -22 -22 -22 -21 -21 -21 -21 -19 -20 -20 -20 -19 -19
-13 -13 -13 -13 -13 -13 -13 -13 -13 -13 -13 -13 -13 -13 -14 -14 -14 -14 -15 -14 -14 -14 -14 -14 -15 -14 -14 -15 -18 -20 -22 -23 -23 -23 -22 -22 -22 -22 -22 -21 -21 -20 -20 -20 -19 -20 -19
-13 -13 -14 -13 -13 -13 -13 -13 -13 -13 -13 -13 -14 -14 -13 -14 -14 -14 -15 -15 -15 -15 -14 -14 -14 -15 -14 -16 -19 -20 -22 -23 -24 -23 -23 -23 -22 -22 -22 -22 -21 -21 -21 -21 -20 -20 -19
-14 -14 -14 -13 -14 -13 -13 -13 -13 -13 -13 -13 -13 -13 -13 -14 -14 -14 -15 -15 -15 -15 -15 -14 -14 -15 -15 -18 -20 -22 -23 -23 -24 -23 -23 -22 -22 -22 -22 -21 -21 -21 -21 -20 -20 -20 -20
-14 -14 -14 -14 -14 -13 -14 -14 -14 -13 -13 -13 -13 -14 -14 -14 -14 -14 -15 -15 -15 -14 -14 -15 -15 -15 -16 -19 -21 -22 -23 -24 -23 -23 -23 -23 -23 -22 -22 -21 -21 -21 -21 -21 -20 -20 -20
-14 -14 -14 -14 -13 -14 -14 -14 -14 -14 -14 -14 -14 -14 -14 -14 -14 -14 -15 -16 -15 -15 -14 -14 -15 -15 -18 -20 -22 -22 -23 -23 -23 -23 -23 -23 -23 -23 -22 -22 -21 -21 -21 -20 -20 -20 -20
-14 -14 -14 -14 -13 -14 -14 -14 -14 -14 -14 -14 -14 -14 -14 -14 -14 -14 -15 -15 -15 -14 -15 -15 -15 -16 -19 -22 -23 -23 -23 -24 -24 -23 -24 -23 -23 -22 -22 -22 -21 -21 -20 -20 -20 -20 -20
Height
5830 5828 5825 5823 5820 5816 5810 5803 5795 5787 5777 5766 5756 5744 5731 5718 5702 5687 5670 5654 5640 5625 5609 5596 5586 5581 5580 5582 5589 5596 5605 5613 5622 5637 5650 5662 5670 5680 5691 5703 5713 5722 5729 5736 5743 5751 5757
5825 5823 5820 5818 5816 5813 5807 5800 5793 5785 5774 5764 5754 5743 5731 5718 5703 5687 5671 5654 5639 5625 5609 5595 5585 5580 5578 5580 5586 5591 5602 5610 5621 5635 5650 5658 5665 5676 5687 5698 5706 5718 5726 5732 5738 5745 5752
5820 5818 5816 5813 5811 5808 5804 5797 5790 5782 5773 5763 5753 5743 5730 5718 5704 5688 5673 5655 5640 5626 5610 5595 5585 5579 5576 5578 5582 5593 5602 5610 5621 5634 5649 5657 5665 5675 5684 5694 5703 5714 5721 5728 5733 5739 5746
5814 5814 5812 5809 5805 5803 5800 5794 5787 5780 5771 5762 5752 5741 5730 5719 5705 5691 5675 5658 5643 5628 5613 5597 5587 5579 5575 5575 5581 5597 5605 5613 5623 5636 5648 5657 5664 5672 5682 5692 5700 5708 5716 5723 5727 5736 5742
5808 5807 5807 5804 5801 5799 5795 5791 5784 5777 5770 5760 5750 5740 5729 5719 5706 5692 5679 5662 5647 5632 5619 5602 5592 5584 5579 5578 5589 5601 5608 5617 5626 5638 5649 5658 5663 5672 5681 5689 5697 5703 5712 5719 5724 5730 5737
5802 5802 5801 5800 5797 5794 5790 5786 5781 5775 5767 5759 5749 5740 5729 5719 5708 5695 5681 5666 5652 5638 5626 5611 5599 5594 5590 5589 5596 5606 5613 5620 5629 5640 5651 5658 5663 5671 5678 5687 5696 5702 5709 5715 5722 5729 5733
5796 5796 5795 5795 5793 5790 5786 5783 5778 5771 5765 5758 5748 5738 5729 5720 5709 5697 5684 5671 5659 5647 5633 5618 5607 5600 5600 5599 5606 5612 5618 5628 5634 5644 5654 5660 5667 5672 5679 5685 5690 5699 5705 5711 5718 5724 5727
5790 5791 5789 5789 5788 5785 5782 5779 5774 5768 5762 5756 5747 5738 5730 5722 5711 5699 5689 5677 5663 5653 5642 5628 5618 5611 5608 5606 5612 5621 5629 5635 5641 5649 5655 5661 5667 5671 5676 5682 5690 5697 5703 5709 5716 5719 5722
5785 5785 5783 5783 5783 5781 5777 5775 5770 5765 5759 5753 5745 5737 5729 5721 5712 5701 5692 5682 5669 5658 5649 5638 5630 5624 5620 5618 5622 5630 5638 5642 5646 5653 5657 5663 5667 5669 5675 5683 5690 5696 5701 5707 5712 5714 5718
5779 5778 5777 5778 5777 5776 5772 5771 5767 5761 5756 5750 5742 5735 5728 5720 5713 5703 5695 5685 5674 5663 5655 5647 5642 5636 5633 5633 5637 5640 5644 5651 5654 5657 5660 5665 5669 5672 5676 5683 5689 5694 5698 5702 5706 5710 5713
5771 5772 5772 5771 5771 5770 5768 5766 5763 5758 5753 5747 5740 5733 5726 5718 5712 5705 5698 5688 5678 5668 5662 5656 5650 5645 5643 5643 5645 5647 5649 5653 5657 5661 5666 5669 5670 5674 5678 5682 5686 5691 5695 5699 5702 5705 5708
5763 5765 5765 5765 5764 5764 5762 5761 5759 5754 5749 5743 5738 5731 5724 5718 5711 5705 5696 5690 5682 5674 5666 5661 5658 5654 5652 5651 5652 5652 5653 5655 5658 5661 5664 5666 5669 5672 5676 5679 5683 5688 5691 5695 5698 5700 5703
5756 5758 5758 5759 5757 5758 5757 5756 5754 5750 5746 5740 5735 5728 5722 5716 5710 5704 5697 5691 5685 5676 5670 5667 5662 5659 5657 5656 5655 5655 5655 5654 5656 5658 5661 5663 5667 5670 5673 5676 5679 5682 5686 5690 5693 5695 5698
5748 5750 5751 5753 5751 5751 5751 5750 5748 5746 5742 5737 5732 5726 5720 5714 5708 5704 5697 5691 5683 5677 5673 5669 5665 5662 5659 5656 5655 5654 5655 5656 5654 5656 5660 5661 5664 5667 5670 5673 5676 5678 5682 5686 5688 5690 5693
5739 5742 5743 5745 5745 5745 5745 5745 5743 5741 5738 5734 5729 5723 5718 5712 5707 5702 5696 5691 5684 5679 5675 5671 5667 5663 5661 5657 5655 5653 5652 5653 5653 5654 5658 5659 5662 5664 5667 5670 5673 5674 5676 5680 5683 5685 5688
5730 5734 5736 5738 5739 5738 5739 5739 5738 5736 5734 5730 5725 5720 5715 5709 5705 5700 5695 5690 5684 5678 5674 5670 5667 5664 5660 5657 5654 5651 5650 5650 5651 5652 5653 5656 5658 5660 5662 5665 5666 5669 5673 5675 5677 5679 5682
5719 5725 5728 5731 5731 5731 5733 5733 5732 5731 5730 5726 5721 5716 5711 5706 5702 5697 5693 5687 5681 5677 5672 5668 5664 5662 5659 5655 5651 5648 5648 5647 5646 5647 5648 5651 5653 5656 5658 5660 5663 5665 5667 5670 5673 5674 5676
5710 5716 5720 5723 5724 5725 5726 5727 5727 5726 5725 5722 5716 5713 5709 5703 5700 5693 5689 5684 5679 5674 5669 5664 5659 5655 5652 5649 5646 5643 5642 5640 5640 5639 5642 5644 5647 5650 5653 5656 5658 5660 5663 5665 5666 5669 5671
5702 5708 5711 5714 5716 5718 5719 5720 5720 5720 5719 5717 5713 5708 5705 5700 5696 5690 5685 5682 5676 5671 5665 5659 5654 5649 5643 5639 5636 5633 5632 5632 5632 5632 5634 5639 5641 5644 5646 5649 5652 5655 5659 5662 5663 5663 5666
5692 5698 5702 5705 5708 5711 5712 5713 5714 5713 5713 5712 5709 5705 5702 5696 5691 5687 5681 5679 5673 5667 5661 5655 5650 5642 5634 5627 5622 5621 5619 5620 5622 5625 5627 5630 5632 5636 5640 5642 5645 5648 5651 5653 5655 5656 5658
5681 5688 5694 5697 5700 5703 5705 5706 5707 5707 5707 5706 5704 5701 5697 5693 5687 5683 5678 5674 5670 5664 5657 5649 5644 5636 5626 5617 5610 5604 5605 5605 5611 5614 5617 5620 5625 5629 5631 5634 5637 5639 5643 5646 5649 5653 5652
5672 5679 5685 5690 5693 5695 5698 5699 5701 5701 5701 5701 5698 5696 5691 5688 5683 5678 5673 5670 5666 5660 5653 5645 5637 5628 5617 5607 5596 5592 5590 5593 5598 5605 5609 5614 5618 5622 5623 5626 5629 5632 5635 5639 5642 5645 5646
5663 5669 5676 5681 5686 5688 5691 5693 5695 5695 5695 5694 5692 5689 5687 5683 5678 5673 5669 5665 5661 5655 5649 5641 5633 5623 5612 5600 5588 5581 5577 5581 5588 5595 5600 5605 5609 5613 5616 5619 5621 5623 5629 5632 5634 5637 5638
5652 5661 5667 5673 5678 5681 5684 5686 5688 5689 5688 5688 5687 5684 5681 5678 5673 5669 5665 5660 5655 5649 5643 5635 5627 5616 5607 5593 5581 5571 5566 5569 5575 5584 5593 5598 5602 5606 5609 5612 5613 5619 5622 5624 5627 5630 5631
5643 5651 5659 5665 5670 5673 5677 5680 5681 5682 5683 5683 5681 5679 5675 5671 5668 5664 5659 5654 5649 5644 5638 5629 5621 5609 5597 5585 5574 5566 5560 5563 5573 5580 5582 5588 5593 5599 5602 5606 5608 5613 5617 5618 5620 5624 5623
5633 5643 5651 5657 5662 5667 5671 5673 5675 5676 5677 5677 5675 5673 5669 5666 5663 5658 5654 5649 5645 5639 5633 5624 5615 5604 5593 5581 5570 5563 5561 5563 5571 5575 5582 5586 5589 5593 5596 5599 5601 5607 5610 5612 5613 5616 5617
5625 5635 5643 5649 5655 5660 5664 5666 5668 5669 5670 5671 5669 5667 5664 5659 5656 5653 5648 5644 5640 5634 5627 5618 5608 5598 5587 5577 5571 5567 5565 5564 5569 5573 5577 5580 5584 5587 5590 5593 5597 5601 5604 5606 5608 5612 5611
5618 5626 5635 5641 5647 5653 5656 5659 5661 5662 5663 5664 5663 5660 5658 5652 5650 5646 5642 5639 5634 5629 5622 5614 5605 5594 5582 5576 5572 5568 5564 5565 5568 5568 5572 5577 5580 5582 5584 5588 5592 5594 5598 5600 5600 5602 5604
5610 5617 5626 5633 5640 5645 5649 5651 5654 5655 5656 5657 5657 5654 5651 5647 5644 5639 5636 5633 5630 5624 5617 5608 5600 5589 5580 5574 5570 5567 5564 5562 5565 5566 5569 5572 5575 5578 5581 5584 5586 5589 5592 5593 5595 5597 5599
Wind_Speed
29 29 29 32 34 34 34 39 41 42 47 52 56 61 67 74 78 78 72 67 61 61 64 58 39 19 6 17 47 46 30 32 43 57 50 52 50 54 57 51 51 48 52 46 52 51 50
29 28 29 30 35 35 36 38 40 40 45 51 54 58 64 72 76 79 74 66 61 61 64 58 36 23 3 17 46 38 28 33 36 54 50 35 44 50 59 43 47 51 48 48 53 52 48
27 27 29 31 32 35 36 37 39 38 43 47 52 56 62 68 73 77 74 65 62 62 64 58 34 24 9 10 43 44 34 28 30 50 47 37 43 41 54 49 50 48 48 49 44 51 50
26 27 28 29 30 34 34 36 32 37 40 43 49 53 58 64 70 75 75 68 61 61 65 56 34 25 12 9 39 39 30 33 31 46 44 36 38 46 52 49 46 45 50 47 36 47 51
24 25 26 28 30 32 32 34 32 37 38 40 47 51 56 61 68 72 74 68 60 61 63 55 37 24 14 10 43 44 32 33 31 46 46 33 34 45 52 47 47 38 47 46 39 41 43
22 23 24 27 29 30 30 32 33 33 36 38 43 48 53 59 64 68 70 68 61 58 60 54 38 24 25 16 42 37 30 29 30 44 37 31 32 33 54 42 43 31 41 42 42 38 41
21 22 21 24 27 29 29 30 29 28 33 36 40 46 51 55 61 66 69 65 59 55 55 54 40 26 18 13 47 35 26 25 27 43 32 24 28 34 39 39 50 36 27 40 39 40 42
21 22 19 19 23 27 27 27 28 29 31 33 37 42 47 51 57 63 66 64 56 53 50 50 40 31 25 16 43 36 27 23 29 36 30 19 24 37 40 44 43 41 34 31 34 37 36
22 22 19 16 19 23 23 24 25 26 29 30 34 39 43 49 54 59 62 63 55 50 46 47 36 30 26 22 30 26 28 25 33 37 28 15 19 18 38 40 37 37 36 34 34 32 32
23 22 20 14 17 19 18 20 21 24 26 30 31 35 40 46 51 56 60 60 56 50 44 44 32 25 23 24 26 21 23 22 25 28 34 25 19 19 27 34 36 35 32 32 30 29 29
24 23 21 15 15 15 16 17 19 23 24 30 29 33 37 43 47 51 55 55 56 50 44 37 32 22 19 21 19 16 21 21 26 22 26 25 23 20 22 27 27 28 30 30 29 27 29
26 24 23 17 15 13 13 14 17 20 23 28 29 31 35 39 43 48 52 52 54 51 41 34 29 16 16 14 10 13 19 18 22 24 22 22 22 26 21 24 28 28 28 28 27 28 30
28 26 23 20 17 14 13 14 17 18 20 24 29 30 33 36 40 45 48 50 51 50 45 34 24 22 5 3 7 11 15 21 24 30 29 25 24 24 23 23 23 27 28 29 28 30 30
30 27 25 23 21 15 14 13 16 16 19 24 27 29 30 34 38 41 45 47 49 49 39 30 27 16 13 0 6 15 19 18 27 27 29 29 27 24 26 25 20 23 28 30 30 30 32
30 29 27 25 23 18 16 13 16 15 18 22 25 26 27 31 36 39 43 44 47 48 39 32 25 18 10 7 6 16 23 19 32 28 29 27 24 22 25 26 23 22 31 33 32 30 28
30 30 28 28 26 21 18 14 12 14 17 20 23 25 26 29 33 36 40 42 44 45 42 33 28 23 15 10 8 13 23 27 34 34 29 31 24 26 24 23 26 28 26 30 33 33 30
31 31 30 30 26 21 20 15 13 13 17 19 21 24 25 27 30 33 36 40 41 45 43 39 33 28 24 17 16 17 17 24 32 43 39 31 25 24 26 29 22 20 24 27 29 32 32
34 32 30 29 25 22 21 17 15 14 15 19 21 22 23 24 27 31 33 39 42 44 45 42 40 39 32 29 17 23 22 24 28 37 45 38 35 28 27 31 31 28 25 27 28 30 30
37 33 33 29 27 23 21 18 15 15 15 18 22 22 23 24 26 31 33 35 39 42 45 47 47 47 47 39 29 19 28 29 30 30 39 41 35 36 37 33 34 29 29 29 31 34 33
36 34 32 33 28 24 22 19 16 14 16 17 22 24 25 26 28 31 32 35 37 41 43 47 49 54 55 51 38 21 26 34 36 35 37 40 35 31 30 32 32 33 29 30 33 34 31
40 36 36 30 27 24 24 18 17 17 15 16 21 25 26 27 27 30 31 35 37 42 45 50 52 55 60 62 46 27 25 32 35 36 39 39 39 36 38 35 32 35 31 31 29 30 34
36 37 37 34 28 24 25 16 18 17 17 17 22 24 27 26 30 30 31 34 37 40 46 50 55 58 62 64 48 33 19 27 30 33 32 31 27 31 26 33 37 36 37 35 32 31 32
47 42 44 34 30 25 23 19 20 19 19 20 20 24 27 26 29 30 30 33 37 41 46 52 56 61 65 65 52 32 20 28 22 31 33 31 37 37 33 27 31 35 34 36 32 30 28
48 41 35 31 30 26 24 20 22 22 21 20 21 25 27 28 29 31 31 34 36 42 46 51 56 61 65 65 47 32 16 25 30 27 26 28 33 31 32 31 34 29 25 28 29 27 27
49 47 43 30 30 31 25 21 22 20 19 20 22 24 27 30 32 33 32 32 36 41 45 51 56 62 67 63 43 27 12 19 24 31 39 26 27 26 28 28 32 25 21 21 23 21 23
51 46 42 37 32 30 27 26 24 24 24 25 24 24 29 35 35 35 34 34 36 40 45 51 56 61 64 56 38 23 3 21 20 21 29 23 30 31 30 29 29 22 20 20 22 22 24
55 49 38 35 41 31 32 29 30 27 23 26 28 27 31 36 37 36 33 32 35 39 45 51 56 60 60 45 31 20 6 22 11 14 28 19 18 24 30 29 28 21 22 23 25 25 27
54 51 48 40 44 33 28 30 28 26 27 27 29 28 31 36 37 37 33 31 34 38 44 50 54 58 55 34 26 20 10 26 20 14 15 16 16 19 25 27 24 20 21 25 27 26 25
51 50 47 45 41 41 32 25 26 28 27 27 28 30 35 36 37 37 32 31 32 37 42 48 53 57 48 27 24 19 12 12 28 27 18 17 20 20 20 24 23 19 21 23 25 24 23
Wind_Direction
291 295 304 312 318 322 332 346 350 358 3 5 3 6 6 5 7 7 5 360 355 354 354 358 359 4 195 196 178 180 169 187 197 195 200 199 203 204 195 198 201 200 205 207 204 205 204
291 292 301 310 316 320 327 340 349 356 5 6 5 5 7 6 7 9 8 3 357 356 355 359 359 2 356 201 186 181 178 186 187 190 196 185 201 203 192 194 197 201 201 207 207 205 206
293 292 297 306 316 319 325 336 347 354 1 7 7 6 8 7 7 10 11 7 1 359 357 1 3 5 359 184 191 178 180 187 189 187 194 193 200 205 194 197 197 199 202 203 207 212 212
289 291 296 303 313 317 324 333 345 350 356 6 8 8 9 6 8 10 13 12 5 4 360 2 9 8 11 171 185 174 180 193 191 183 177 185 200 204 195 197 197 197 201 205 202 207 212
284 288 294 302 311 316 322 329 342 347 350 5 8 8 10 7 8 10 14 15 11 8 4 6 17 30 54 140 171 163 168 173 175 178 169 170 193 200 197 194 197 200 202 207 205 204 207
281 286 292 299 309 316 321 329 341 343 348 3 9 10 10 7 8 10 15 17 15 11 9 9 24 51 59 76 164 161 158 167 171 173 179 166 186 199 201 189 191 191 203 206 211 214 210
276 279 287 298 308 315 319 327 343 347 346 1 7 12 9 7 9 11 16 19 19 15 14 15 25 49 53 64 160 159 155 174 166 174 184 184 203 206 194 195 194 197 194 205 210 214 216
270 273 281 295 307 313 319 327 334 341 343 355 7 11 9 7 10 11 14 20 25 22 18 23 28 43 47 69 165 162 155 156 159 164 154 170 186 197 198 197 199 206 204 204 210 216 217
267 269 274 288 304 311 317 325 333 338 345 356 7 10 10 8 11 12 13 19 26 28 24 26 33 43 57 94 142 153 163 161 158 165 166 155 180 189 202 198 205 206 208 212 216 217 222
261 262 265 278 295 304 312 323 329 338 350 359 6 12 9 9 10 11 13 19 25 31 32 31 33 52 68 109 115 125 147 151 165 177 184 186 181 192 197 207 206 210 216 219 223 225 229
256 256 261 267 282 293 304 317 325 340 351 357 5 11 11 10 9 11 15 18 24 28 33 33 34 54 84 112 126 135 156 165 176 180 190 200 206 203 198 203 207 212 221 223 224 227 229
251 252 254 260 268 278 292 312 325 338 349 2 2 10 12 11 10 10 15 18 20 28 36 34 34 61 85 106 123 141 166 172 186 196 199 204 207 212 214 211 213 217 219 223 224 229 230
250 249 250 256 258 267 274 300 320 335 349 358 360 8 9 9 10 10 15 15 24 29 31 37 32 40 84 98 156 190 176 180 191 195 198 199 205 210 210 213 219 221 217 220 223 228 230
247 247 248 253 255 259 266 291 322 327 341 350 353 3 5 9 8 9 11 15 19 24 37 37 28 28 31 289 208 188 191 207 193 200 203 212 216 217 220 218 227 222 219 224 228 232 233
242 246 246 249 254 258 265 278 307 324 331 342 347 358 2 7 7 6 10 10 15 18 29 39 31 15 360 2 244 208 206 220 210 198 201 202 204 207 209 214 224 225 218 221 226 233 237
239 245 246 249 254 256 264 266 303 320 329 341 344 352 358 4 3 4 8 5 8 11 18 25 30 21 352 311 291 239 222 216 217 213 207 210 221 225 223 221 227 228 225 224 225 230 234
236 243 245 249 255 258 264 266 289 315 325 337 338 348 354 358 358 359 4 3 3 4 6 10 15 15 9 332 277 265 246 236 225 224 221 219 224 224 223 221 222 227 226 228 230 232 237
235 239 244 247 254 260 265 269 286 300 318 336 337 348 351 356 355 352 360 359 357 358 358 0 359 359 0 352 307 268 255 244 240 231 227 225 226 223 224 226 230 232 229 230 228 230 235
228 232 243 240 249 256 261 270 288 288 304 330 336 349 348 351 351 349 353 356 353 353 352 351 351 351 348 348 334 276 250 241 240 239 230 225 232 234 234 234 234 243 237 237 243 245 244
220 229 240 240 243 250 260 269 280 286 305 319 330 342 344 346 346 345 348 351 349 348 349 347 348 346 344 341 334 306 258 241 231 228 230 232 239 238 238 238 236 234 237 242 241 238 244
223 226 236 244 239 246 256 264 277 291 304 318 325 333 337 341 340 339 344 346 346 345 345 343 346 345 341 339 334 314 257 249 235 234 234 234 239 249 247 246 242 236 237 242 241 244 248
212 223 233 240 242 238 254 268 278 292 305 315 323 325 333 334 337 337 338 341 342 342 341 342 343 343 339 339 334 320 271 248 236 225 240 232 235 231 229 242 240 243 243 241 251 249 250
220 224 229 234 238 239 247 258 276 280 306 317 326 320 327 329 333 332 334 338 339 339 341 339 341 339 338 337 337 329 285 216 230 231 223 229 226 228 224 223 236 239 238 242 247 245 248
217 224 221 233 238 245 250 254 273 280 300 310 323 321 324 324 327 330 334 336 337 337 337 337 338 336 337 338 339 334 294 225 205 210 215 237 235 233 237 236 239 241 238 237 238 244 249
216 222 228 239 249 248 250 265 272 283 294 303 313 318 323 325 328 329 329 332 334 335 334 334 337 336 338 338 342 340 302 202 207 215 221 219 225 236 239 241 245 246 245 247 249 249 251
223 225 229 240 245 252 251 260 271 285 290 296 312 310 318 325 323 324 324 326 332 333 332 335 336 336 338 341 345 350 213 171 210 211 215 227 232 240 239 239 244 242 247 239 241 242 250
220 225 226 237 241 247 254 262 270 279 291 294 307 310 319 314 315 319 319 324 329 332 332 334 335 337 339 345 351 355 225 179 175 213 220 229 237 237 240 242 240 242 237 239 244 246 247
222 223 228 233 242 250 255 263 266 280 287 295 305 309 318 308 309 313 317 323 328 331 334 332 335 338 340 346 356 355 331 215 204 184 215 218 232 244 235 239 244 244 239 239 243 249 252
220 227 227 233 239 242 253 263 263 275 283 295 301 308 309 305 309 311 317 321 326 330 331 332 335 339 340 342 357 353 328 264 224 220 232 231 226 229 233 231 237 233 230 236 241 245 250